Tracking 21094 objects as of 11-Aug-2020
HD Live streaming from Space Station
objects crossing your sky now
Track the most recent launched group of Starlink satellites

SL-8 DEB

Track SL-8 DEB now!
10-day predictions


NORAD ID: 11114
Int'l Code: 1978-105D
Perigee: 645.2 km
Apogee: 653.6 km
Inclination: 74.0 °
Period: 97.6 minutes
Semi major axis: 7020 km
RCS: 0.0186 m2 (small)
Launch date: November 16, 1978
Source: Commonwealth of Independent States (former USSR) (CIS)
Launch site: PLESETSK MISSILE AND SPACE COMPLEX (PKMTR)

Note: This is SATELLITE DEBRIS
aabbcc
Your satellite tracking list
Your tracking list is empty




NASA's NSSDC Master Catalog

Two Line Element Set (TLE):
1 11114U 78105D   20224.08124192 +.00000307 +00000-0 +49627-4 0  9998
2 11114 074.0119 096.0764 0005987 183.2685 176.8451 14.75907663211730
Source of the keplerian elements: AFSPC